| time (UTC) | temp F | wind direction | speed MPH | gust MPH | rain 1hr in | rain 24hr in | rain mn in | humidity % | barometer mb |
| 20260904091542 | 53 | 50 | 6.0 | 9.0 | 0.00 | 0.00 | 0.00 | 59 | 1008.9 |
| 20260904090046 | 53 | 45 | 6.0 | 9.0 | 0.00 | 0.00 | 0.00 | 60 | 1009.2 |
| 20260904084545 | 53 | 50 | 5.0 | 10.0 | 0.00 | 0.00 | 0.00 | 60 | 1009.2 |
| 20260904083046 | 53 | 83 | 5.0 | 10.0 | 0.00 | 0.00 | 0.00 | 59 | 1009.4 |
| 20260904081546 | 52 | 85 | 4.0 | 7.0 | 0.00 | 0.00 | 0.00 | 63 | 1009.4 |
| 20260904080044 | 52 | 86 | 3.0 | 7.0 | 0.00 | 0.00 | 0.00 | 64 | 1009.6 |
| 20260904074542 | 54 | 77 | 5.0 | 7.0 | 0.00 | 0.00 | 0.00 | 61 | 1009.7 |
| 20260904073046 | 56 | 81 | 3.0 | 5.0 | 0.00 | 0.00 | 0.00 | 58 | 1009.8 |
| 20260904071545 | 57 | 65 | 4.0 | 8.0 | 0.00 | 0.00 | 0.00 | 55 | 1009.8 |
| 20260904070044 | 57 | 79 | 3.0 | 7.0 | 0.00 | 0.00 | 0.00 | 56 | 1009.9 |
| 20260904064540 | 57 | 100 | 2.0 | 3.0 | 0.00 | 0.00 | 0.00 | 55 | 1009.8 |
| 20260904063046 | 57 | 348 | 2.0 | 5.0 | 0.00 | 0.00 | 0.00 | 56 | 1010.0 |
| 20260904061546 | 56 | 69 | 2.0 | 4.0 | 0.00 | 0.00 | 0.00 | 56 | 1010.1 |
| 20260904060041 | 56 | 67 | 1.0 | 3.0 | 0.00 | 0.00 | 0.00 | 56 | 1010.0 |
| 20260904054549 | 56 | 67 | 3.0 | 6.0 | 0.00 | 0.00 | 0.00 | 56 | 1010.3 |
| 20260904053050 | 55 | 0 | 1.0 | 4.0 | 0.00 | 0.00 | 0.00 | 57 | 1010.7 |
| 20260904051547 | 55 | 73 | 1.0 | 4.0 | 0.00 | 0.00 | 0.00 | 58 | 1010.8 |
| 20260904050043 | 54 | 73 | 1.0 | 4.0 | 0.00 | 0.00 | 0.00 | 60 | 1010.8 |
| 20260904044546 | 53 | 73 | 2.0 | 5.0 | 0.00 | 0.00 | 0.00 | 62 | 1010.8 |
| 20260904043051 | 52 | 86 | 3.0 | 5.0 | 0.00 | 0.00 | 0.00 | 62 | 1010.6 |
| 20260904041548 | 52 | 81 | 4.0 | 7.0 | 0.00 | 0.00 | 0.00 | 63 | 1010.5 |
| 20260904040100 | 53 | 91 | 4.0 | 6.0 | 0.00 | 0.00 | 0.00 | 60 | 1010.4 |
| 20260904034550 | 54 | 0 | 0.0 | 5.0 | 0.00 | 0.00 | 0.00 | 58 | 1010.4 |
| 20260904033049 | 55 | 343 | 1.0 | 5.0 | 0.00 | 0.00 | 0.00 | 55 | 1010.5 |
| 20260904031546 | 55 | 0 | 0.0 | 1.0 | 0.00 | 0.00 | 0.00 | 55 | 1010.6 |
| 20260904030045 | 55 | 50 | 0.0 | 6.0 | 0.00 | 0.00 | 0.00 | 54 | 1010.3 |
| 20260904024548 | 57 | 8 | 1.0 | 3.0 | 0.00 | 0.00 | 0.00 | 50 | 1010.3 |
| 20260904023057 | 59 | 8 | 1.0 | 6.0 | 0.00 | 0.00 | 0.00 | 47 | 1010.2 |
| 20260904021545 | 62 | 353 | 6.0 | 8.0 | 0.00 | 0.00 | 0.00 | 43 | 1010.0 |
| 20260904020046 | 64 | 286 | 3.0 | 4.0 | 0.00 | 0.00 | 0.00 | 40 | 1010.0 |
| 20260904014557 | 65 | 286 | 3.0 | 8.0 | 0.00 | 0.00 | 0.00 | 39 | 1009.9 |
| 20260904013047 | 66 | 274 | 4.0 | 9.0 | 0.00 | 0.00 | 0.00 | 37 | 1010.0 |
| 20260904011546 | 67 | 291 | 9.0 | 13.0 | 0.00 | 0.00 | 0.00 | 36 | 1009.8 |
| 20260904010049 | 68 | 289 | 12.0 | 18.0 | 0.00 | 0.00 | 0.00 | 35 | 1009.7 |
| 20260904004549 | 69 | 265 | 11.0 | 17.0 | 0.00 | 0.02 | 0.00 | 34 | 1009.6 |
| 20260904003045 | 69 | 289 | 12.0 | 21.0 | 0.00 | 0.02 | 0.00 | 33 | 1009.5 |
| 20260904001540 | 70 | 277 | 14.0 | 21.0 | 0.00 | 0.02 | 0.00 | 34 | 1009.5 |
| 20260904000044 | 70 | 281 | 15.0 | 22.0 | 0.00 | 0.02 | 0.00 | 33 | 1009.2 |
| 20260903234546 | 71 | 265 | 14.0 | 24.0 | 0.00 | 0.09 | 0.00 | 33 | 1009.0 |
| 20260903233051 | 72 | 303 | 17.0 | 24.0 | 0.00 | 0.09 | 0.00 | 32 | 1009.0 |
| 20260903231551 | 72 | 268 | 10.0 | 25.0 | 0.00 | 0.09 | 0.00 | 33 | 1009.1 |
| 20260903230048 | 72 | 279 | 17.0 | 24.0 | 0.00 | 0.09 | 0.00 | 33 | 1009.0 |
| 20260903224602 | 73 | 262 | 14.0 | 26.0 | 0.00 | 0.09 | 0.00 | 33 | 1008.8 |
| 20260903223045 | 73 | 265 | 14.0 | 26.0 | 0.00 | 0.09 | 0.00 | 34 | 1008.5 |
| 20260903221544 | 73 | 294 | 12.0 | 23.0 | 0.00 | 0.09 | 0.00 | 33 | 1008.3 |
| 20260903220047 | 72 | 269 | 14.0 | 21.0 | 0.00 | 0.09 | 0.00 | 34 | 1008.2 |
| 20260903214604 | 72 | 231 | 9.0 | 18.0 | 0.00 | 0.09 | 0.00 | 33 | 1008.2 |
| 20260903213058 | 72 | 225 | 12.0 | 21.0 | 0.00 | 0.09 | 0.00 | 32 | 1008.1 |
| 20260903211545 | 71 | 255 | 9.0 | 14.0 | 0.00 | 0.09 | 0.00 | 34 | 1008.1 |
| 20260903210059 | 72 | 258 | 9.0 | 19.0 | 0.00 | 0.09 | 0.00 | 33 | 1008.2 |
| 20260903204548 | 72 | 241 | 9.0 | 18.0 | 0.00 | 0.09 | 0.00 | 33 | 1008.2 |
| 20260903203105 | 71 | 241 | 10.0 | 15.0 | 0.00 | 0.09 | 0.00 | 35 | 1008.3 |
| 20260903201546 | 70 | 216 | 10.0 | 16.0 | 0.00 | 0.09 | 0.00 | 34 | 1008.3 |
| 20260903200051 | 71 | 258 | 12.0 | 19.0 | 0.00 | 0.09 | 0.00 | 35 | 1008.3 |
| 20260903194543 | 71 | 259 | 11.0 | 21.0 | 0.00 | 0.09 | 0.00 | 35 | 1008.1 |
| 20260903193046 | 71 | 239 | 11.0 | 22.0 | 0.00 | 0.09 | 0.00 | 34 | 1008.2 |
| 20260903191542 | 71 | 258 | 13.0 | 25.0 | 0.00 | 0.09 | 0.00 | 34 | 1008.3 |
| 20260903190045 | 69 | 226 | 15.0 | 24.0 | 0.00 | 0.09 | 0.00 | 36 | 1008.2 |
| 20260903184546 | 69 | 267 | 11.0 | 21.0 | 0.00 | 0.09 | 0.00 | 39 | 1008.1 |
| 20260903183049 | 69 | 256 | 10.0 | 23.0 | 0.00 | 0.09 | 0.00 | 36 | 1007.9 |
| 20260903181541 | 69 | 204 | 10.0 | 21.0 | 0.00 | 0.09 | 0.00 | 40 | 1008.0 |
| 20260903180044 | 68 | 240 | 9.0 | 21.0 | 0.00 | 0.09 | 0.00 | 42 | 1008.1 |
| 20260903174550 | 67 | 210 | 11.0 | 22.0 | 0.00 | 0.09 | 0.00 | 43 | 1008.3 |
| 20260903173048 | 65 | 243 | 9.0 | 20.0 | 0.00 | 0.09 | 0.00 | 50 | 1008.5 |
| 20260903171547 | 62 | 200 | 4.0 | 9.0 | 0.00 | 0.09 | 0.00 | 59 | 1008.6 |
| 20260903170045 | 60 | 225 | 7.0 | 12.0 | 0.00 | 0.09 | 0.00 | 62 | 1008.6 |
| 20260903164546 | 57 | 256 | 5.0 | 8.0 | 0.00 | 0.09 | 0.00 | 70 | 1008.6 |
| 20260903163046 | 55 | 237 | 4.0 | 8.0 | 0.00 | 0.09 | 0.00 | 70 | 1008.6 |
| 20260903161545 | 54 | 215 | 5.0 | 9.0 | 0.00 | 0.09 | 0.00 | 70 | 1008.8 |
| 20260903160045 | 54 | 212 | 5.0 | 8.0 | 0.00 | 0.09 | 0.00 | 69 | 1008.7 |
| 20260903154603 | 53 | 223 | 6.0 | 9.0 | 0.00 | 0.09 | 0.00 | 72 | 1008.6 |
| 20260903153050 | 53 | 195 | 7.0 | 10.0 | 0.00 | 0.09 | 0.00 | 74 | 1008.4 |
| 20260903151541 | 52 | 210 | 5.0 | 9.0 | 0.00 | 0.09 | 0.00 | 77 | 1008.5 |
| 20260903150042 | 51 | 231 | 4.0 | 6.0 | 0.00 | 0.09 | 0.00 | 80 | 1008.6 |
| 20260903144545 | 51 | 247 | 3.0 | 6.0 | 0.00 | 0.09 | 0.00 | 82 | 1008.6 |
| 20260903143101 | 48 | 214 | 2.0 | 6.0 | 0.00 | 0.09 | 0.00 | 84 | 1008.3 |
| 20260903141558 | 47 | 227 | 5.0 | 7.0 | 0.00 | 0.09 | 0.00 | 85 | 1008.1 |
| 20260903140046 | 46 | 203 | 6.0 | 8.0 | 0.00 | 0.09 | 0.00 | 84 | 1007.9 |
| 20260903134552 | 45 | 214 | 4.0 | 6.0 | 0.00 | 0.09 | 0.00 | 84 | 1007.9 |
| 20260903133046 | 44 | 214 | 2.0 | 5.0 | 0.00 | 0.09 | 0.00 | 85 | 1007.9 |
| 20260903131547 | 43 | 214 | 2.0 | 4.0 | 0.00 | 0.09 | 0.00 | 86 | 1007.6 |
| 20260903130044 | 43 | 0 | 1.0 | 5.0 | 0.00 | 0.09 | 0.00 | 85 | 1007.3 |
| 20260903124546 | 43 | 0 | 0.0 | 4.0 | 0.00 | 0.09 | 0.00 | 83 | 1007.2 |
| 20260903123043 | 44 | 216 | 3.0 | 7.0 | 0.00 | 0.09 | 0.00 | 83 | 1007.0 |
| 20260903121541 | 43 | 264 | 4.0 | 6.0 | 0.00 | 0.09 | 0.00 | 85 | 1006.9 |
| 20260903120048 | 43 | 263 | 3.0 | 6.0 | 0.00 | 0.09 | 0.00 | 85 | 1007.0 |
| 20260903114547 | 43 | 258 | 3.0 | 5.0 | 0.00 | 0.09 | 0.00 | 85 | 1007.0 |
| 20260903113045 | 44 | 268 | 2.0 | 4.0 | 0.00 | 0.09 | 0.00 | 84 | 1007.1 |
| 20260903111544 | 44 | 277 | 4.0 | 5.0 | 0.00 | 0.09 | 0.00 | 85 | 1007.1 |
| 20260903110048 | 45 | 277 | 4.0 | 7.0 | 0.00 | 0.09 | 0.00 | 81 | 1007.2 |
| 20260903104548 | 46 | 171 | 3.0 | 7.0 | 0.00 | 0.09 | 0.00 | 80 | 1007.3 |
| 20260903103050 | 46 | 171 | 3.0 | 8.0 | 0.00 | 0.09 | 0.00 | 80 | 1007.3 |
| 20260903101543 | 46 | 0 | 1.0 | 3.0 | 0.00 | 0.09 | 0.00 | 81 | 1007.2 |
| 20260903100045 | 47 | 297 | 0.0 | 4.0 | 0.00 | 0.09 | 0.00 | 81 | 1007.2 |
| 20260903094545 | 47 | 0 | 0.0 | 1.0 | 0.00 | 0.09 | 0.00 | 81 | 1007.1 |
| 20260903093100 | 47 | 0 | 0.0 | 5.0 | 0.00 | 0.09 | 0.00 | 81 | 1007.1 |